Weather History for Clearfield, PA

Change the Weather History Date:

Sunday, November 4, 2012

  Actual Average (KDUJ) Record (KDUJ)
Temperature  
Mean Temperature 35 °F 44 °F  
Max Temperature 36 °F 52 °F 75 °F (2003)
Min Temperature 33 °F 35 °F 13 °F (1991)
Degree Days  
Heating Degree Days 30 22  
Month to date heating degree days 85  
Since 1 July heating degree days 828  
Cooling Degree Days 0 0  
Month to date cooling degree days 0  
Year to date cooling degree days 362  
Moisture  
Dew Point 26 °F    
Average Humidity 68    
Maximum Humidity 72    
Minimum Humidity 64    
Precipitation  
Precipitation 0.00 in 0.12 in 0.88 in (1982)
Month to date precipitation 0.48  
Sea Level Pressure  
Sea Level Pressure 30.08 in    
Wind  
Wind Speed 7 mph (NW)    
Max Wind Speed 10 mph    
Max Gust Speed 18 mph    
Visibility 10 miles    
Events      
T = Trace of Precipitation, MM = Missing Value Source: NWS Daily Summary

Daily Weather History Graph

Daily Weather History Graph

Search for Another Location

Airport:

Trip Planner

Search our weather history database for the weather conditions in past years. The results will help you decide how hot, cold, wet, or windy it might be!

Date:

Astronomy

Nov. 04, 2012 Rise Set
Actual Time 6:48 AM EST 5:05 PM EST
Civil Twilight 6:19 AM EST 5:34 PM EST
Nautical Twilight 5:47 AM EST 6:06 PM EST
Astronomical Twilight 5:15 AM EST 6:38 PM EST
Moon 9:41 PM EST (11/4) 11:31 AM EST (11/4)
Length of Visible Light 11h 14m
Length of Day
10h 16m
Waning Gibbous, 72% of the Moon is Illuminated
Nov 4
Waning Gibbous
Nov 6
Last Quarter
Nov 13
New
Nov 20
First Quarter
Nov 28
Full

Hourly Weather History & Observations

Time (EST) Temp. Windchill Dew Point Humidity Pressure Visibility Wind Dir Wind Speed Gust Speed Precip Events Conditions
12:54 AM 36.0 °F 29.0 °F 27.0 °F 70% 30.08 in 10.0 mi NNW 9.2 mph 18.4 mph N/A   Overcast
1:54 AM 36.0 °F 31.1 °F 27.0 °F 70% 30.07 in 10.0 mi NW 5.8 mph - N/A   Overcast
1:54 AM 36.0 °F 32.1 °F 27.0 °F 70% 30.08 in 10.0 mi NW 4.6 mph - N/A   Overcast
2:54 AM 36.0 °F 31.1 °F 27.0 °F 70% 30.07 in 10.0 mi WNW 5.8 mph - N/A   Overcast
3:54 AM 36.0 °F 32.1 °F 27.0 °F 70% 30.07 in 10.0 mi WNW 4.6 mph - N/A   Overcast
4:54 AM 35.1 °F 28.6 °F 27.0 °F 72% 30.08 in 10.0 mi NW 8.1 mph - N/A   Overcast
5:54 AM 35.1 °F 31.0 °F 27.0 °F 72% 30.08 in 10.0 mi NW 4.6 mph - N/A   Overcast
6:54 AM 34.0 °F 28.0 °F 24.1 °F 67% 30.09 in 10.0 mi North 6.9 mph - N/A   Overcast
7:54 AM 34.0 °F 26.6 °F 23.0 °F 64% 30.11 in 10.0 mi NNW 9.2 mph - N/A   Overcast
8:54 AM 35.1 °F 28.6 °F 24.1 °F 64% 30.10 in 10.0 mi NNW 8.1 mph - N/A   Overcast
9:54 AM 35.1 °F 27.9 °F 25.0 °F 67% 30.10 in 10.0 mi NW 9.2 mph - N/A   Overcast
10:54 AM 36.0 °F 32.1 °F 25.0 °F 64% 30.10 in 10.0 mi NW 4.6 mph - N/A   Overcast
11:54 AM 36.0 °F 31.1 °F 26.1 °F 67% 30.09 in 10.0 mi NW 5.8 mph - N/A   Overcast
12:54 PM 36.0 °F 28.5 °F 27.0 °F 70% 30.08 in 10.0 mi WNW 10.4 mph - N/A   Overcast
1:54 PM 36.0 °F 29.0 °F 27.0 °F 70% 30.08 in 10.0 mi NW 9.2 mph - N/A   Overcast
2:54 PM 36.0 °F 30.3 °F 27.0 °F 70% 30.08 in 10.0 mi NW 6.9 mph - N/A   Overcast
3:54 PM 36.0 °F - 27.0 °F 70% 30.08 in 10.0 mi Calm Calm - N/A   Overcast
4:54 PM 36.0 °F 29.6 °F 27.0 °F 70% 30.08 in 10.0 mi NW 8.1 mph - N/A   Overcast
5:49 PM 35.6 °F 29.2 °F 24.8 °F 65% 30.05 in 10.0 mi WNW 8.1 mph - N/A   Overcast
5:54 PM 36.0 °F 30.3 °F 25.0 °F 64% 30.09 in 10.0 mi WNW 6.9 mph - N/A   Overcast
6:54 PM 35.1 °F 29.3 °F 24.1 °F 64% 30.10 in 10.0 mi NW 6.9 mph - N/A   Overcast
7:12 PM 35.6 °F 29.9 °F 24.8 °F 65% 30.06 in 10.0 mi NW 6.9 mph - N/A   Overcast
7:54 PM 35.1 °F 27.4 °F 25.0 °F 67% 30.09 in 10.0 mi NNW 10.4 mph - N/A   Overcast
8:54 PM 34.0 °F 27.2 °F 23.0 °F 64% 30.09 in 10.0 mi NW 8.1 mph - N/A   Overcast
9:54 PM 34.0 °F 27.2 °F 24.1 °F 67% 30.10 in 10.0 mi NW 8.1 mph - N/A   Overcast
10:54 PM 33.1 °F 30.0 °F 24.1 °F 70% 30.09 in 10.0 mi NNW 3.5 mph - N/A   Overcast